Главная страница
METAR-TAF:

METAR-TAF

Аэропорты :

Касабланка, Марокко

широта: 33-34N, долгота: 007-40W, высота над уровнем моря: 62 м

Текущие метеонаблюдения

Эта сводка был подготовлена 55 минут назад, в 14:00 UTC
Ветер 17 Узел от северо-северо-восточный
Температура 19°C
Влажность 43%
Давление 1015 hPa
Видимость 10 км и более
Нет облачности ниже 1500 м, и нет кучево-дождевой облачности

METAR: GMMC 221400Z 02017KT CAVOK 19/06 Q1015 NOSIG

Время: 14:55 (14:55 UTC)


TAF: отсутствует

Метеонаблюдения и прогнозы для более 4000 аэропортов (сводки METAR и TAF).

Имеющиеся станции представлены на карте желтыми и красными точками.

Чтобы увидеть название станции, наведите на нее мышь.

Затем щелкните, чтобы увидеть метеонаблюдения и метеопрогнозы.

Управление картой: чтобы увеличить масштаб, щелкните зеленые кнопки с черным крестиком; чтобы уменьшить масштаб, щелкните зеленую кнопку с тире; для просмотра соседних карт щелкайте зеленые стрелки.


METAR-TAF: